| time (UTC) | temp C | wind direction | speed KPH | gust KPH | rain 1hr cm | rain 24hr cm | rain mn cm | humidity % | barometer mb |
| 20260506150045 | 14 | 200 | 3.2 | 9.7 | 0.08 | 0.69 | 0.64 | 89 | 1010.1 |
| 20260506144555 | 14 | 237 | 3.2 | 11.3 | 0.08 | 0.66 | 0.61 | 89 | 1010.1 |
| 20260506143039 | 14 | 142 | 1.6 | 4.8 | 0.08 | 0.64 | 0.58 | 89 | 1010.0 |
| 20260506141533 | 13 | 142 | 0.0 | 4.8 | 0.10 | 0.61 | 0.56 | 89 | 1010.2 |
| 20260506140043 | 13 | 142 | 1.6 | 4.8 | 0.18 | 0.61 | 0.56 | 89 | 1010.4 |
| 20260506134533 | 13 | 134 | 1.6 | 4.8 | 0.25 | 0.58 | 0.53 | 89 | 1010.4 |
| 20260506133028 | 12 | 188 | 1.6 | 6.4 | 0.30 | 0.56 | 0.51 | 89 | 1010.6 |
| 20260506131535 | 12 | 261 | 0.0 | 1.6 | 0.33 | 0.51 | 0.46 | 89 | 1010.9 |
| 20260506130026 | 12 | 261 | 1.6 | 3.2 | 0.28 | 0.43 | 0.38 | 88 | 1011.2 |
| 20260506124524 | 12 | 261 | 1.6 | 4.8 | 0.18 | 0.33 | 0.28 | 88 | 1011.2 |
| 20260506123035 | 12 | 261 | 0.0 | 3.2 | 0.13 | 0.25 | 0.20 | 88 | 1010.7 |
| 20260506121522 | 12 | 261 | 0.0 | 3.2 | 0.05 | 0.18 | 0.13 | 88 | 1010.7 |
| 20260506120030 | 12 | 261 | 0.0 | 1.6 | 0.03 | 0.20 | 0.10 | 88 | 1010.5 |
| 20260506114521 | 12 | 261 | 0.0 | 4.8 | 0.03 | 0.20 | 0.10 | 87 | 1011.0 |
| 20260506113020 | 12 | 256 | 0.0 | 3.2 | 0.03 | 0.18 | 0.08 | 87 | 1011.2 |
| 20260506111520 | 12 | 256 | 1.6 | 4.8 | 0.03 | 0.18 | 0.08 | 87 | 1011.3 |
| 20260506110020 | 12 | 256 | 0.0 | 1.6 | 0.03 | 0.18 | 0.08 | 87 | 1011.0 |
| 20260506104524 | 11 | 256 | 0.0 | 3.2 | 0.05 | 0.18 | 0.08 | 86 | 1010.8 |
| 20260506103019 | 11 | 256 | 0.0 | 1.6 | 0.03 | 0.15 | 0.05 | 86 | 1011.0 |
| 20260506101518 | 11 | 256 | 0.0 | 1.6 | 0.03 | 0.15 | 0.05 | 86 | 1010.7 |
| 20260506100020 | 11 | 256 | 0.0 | 1.6 | 0.03 | 0.15 | 0.05 | 86 | 1010.6 |
| 20260506094516 | 11 | 256 | 1.6 | 3.2 | 0.03 | 0.13 | 0.03 | 85 | 1010.7 |
| 20260506093020 | 11 | 256 | 0.0 | 3.2 | 0.03 | 0.13 | 0.03 | 84 | 1010.7 |
| 20260506091514 | 12 | 256 | 0.0 | 3.2 | 0.03 | 0.13 | 0.03 | 84 | 1010.8 |
| 20260506090013 | 12 | 256 | 0.0 | 3.2 | 0.03 | 0.13 | 0.03 | 83 | 1010.9 |
| 20260506084511 | 11 | 256 | 0.0 | 3.2 | 0.00 | 0.10 | 0.00 | 83 | 1011.2 |
| 20260506083012 | 11 | 256 | 1.6 | 9.7 | 0.00 | 0.10 | 0.00 | 83 | 1011.5 |
| 20260506081515 | 12 | 272 | 3.2 | 4.8 | 0.00 | 0.10 | 0.00 | 82 | 1011.5 |
| 20260506073006 | 12 | 44 | 0.0 | 4.8 | 0.00 | 0.10 | 0.00 | 82 | 1011.1 |
| 20260506071506 | 12 | 44 | 1.6 | 4.8 | 0.00 | 0.10 | 0.00 | 82 | 1011.2 |
| 20260506061602 | 12 | 44 | 0.0 | 3.2 | 0.00 | 0.10 | 0.00 | 81 | 1011.8 |
| 20260506044553 | 13 | 20 | 0.0 | 3.2 | 0.00 | 0.10 | 0.00 | 80 | 1012.9 |
| 20260506043049 | 13 | 20 | 0.0 | 3.2 | 0.00 | 0.10 | 0.00 | 79 | 1013.1 |
| 20260506041548 | 13 | 20 | 0.0 | 4.8 | 0.00 | 0.10 | 0.00 | 78 | 1012.8 |
| 20260506040045 | 13 | 20 | 0.0 | 3.2 | 0.00 | 0.10 | 0.00 | 77 | 1013.1 |
| 20260506034602 | 13 | 20 | 1.6 | 6.4 | 0.00 | 0.10 | 0.10 | 76 | 1013.2 |
| 20260506033043 | 13 | 58 | 0.0 | 6.4 | 0.00 | 0.10 | 0.10 | 76 | 1013.5 |
| 20260506031550 | 14 | 58 | 6.4 | 12.9 | 0.00 | 0.10 | 0.10 | 75 | 1013.4 |
| 20260506030039 | 14 | 31 | 1.6 | 6.4 | 0.00 | 0.10 | 0.10 | 74 | 1013.3 |
| 20260506024538 | 15 | 49 | 0.0 | 14.5 | 0.00 | 0.10 | 0.10 | 74 | 1013.3 |
| 20260506023034 | 15 | 46 | 8.0 | 17.7 | 0.00 | 0.10 | 0.10 | 77 | 1013.3 |
| 20260506021531 | 16 | 28 | 1.6 | 14.5 | 0.00 | 0.10 | 0.10 | 78 | 1012.8 |
| 20260506020034 | 16 | 52 | 8.0 | 17.7 | 0.00 | 0.10 | 0.10 | 77 | 1012.7 |
| 20260506014530 | 17 | 350 | 4.8 | 8.0 | 0.00 | 0.10 | 0.10 | 77 | 1012.6 |
| 20260506013030 | 17 | 335 | 1.6 | 19.3 | 0.00 | 0.10 | 0.10 | 79 | 1012.5 |
| 20260506011525 | 17 | 355 | 4.8 | 12.9 | 0.00 | 0.10 | 0.10 | 81 | 1012.0 |
| 20260506010046 | 17 | 40 | 3.2 | 8.0 | 0.00 | 0.10 | 0.10 | 81 | 1012.0 |
| 20260506004524 | 17 | 141 | 3.2 | 6.4 | 0.00 | 0.10 | 0.10 | 81 | 1011.1 |
| 20260506003023 | 17 | 218 | 1.6 | 6.4 | 0.00 | 0.10 | 0.10 | 80 | 1011.0 |
| 20260506001523 | 17 | 218 | 3.2 | 6.4 | 0.00 | 0.10 | 0.10 | 80 | 1010.9 |
| 20260506000022 | 17 | 218 | 3.2 | 4.8 | 0.00 | 0.10 | 0.10 | 78 | 1010.8 |
| 20260505234521 | 18 | 218 | 3.2 | 6.4 | 0.00 | 0.10 | 0.10 | 77 | 1010.8 |
| 20260505233021 | 18 | 218 | 3.2 | 6.4 | 0.00 | 0.10 | 0.10 | 77 | 1010.7 |
| 20260505231521 | 18 | 218 | 4.8 | 8.0 | 0.00 | 0.10 | 0.10 | 77 | 1010.8 |
| 20260505230026 | 18 | 221 | 3.2 | 8.0 | 0.00 | 0.10 | 0.10 | 76 | 1010.6 |
| 20260505224520 | 18 | 228 | 1.6 | 6.4 | 0.00 | 0.10 | 0.10 | 75 | 1010.5 |
| 20260505223019 | 18 | 227 | 4.8 | 8.0 | 0.00 | 0.10 | 0.10 | 76 | 1010.6 |
| 20260505221519 | 18 | 207 | 6.4 | 12.9 | 0.00 | 0.10 | 0.10 | 77 | 1010.7 |
| 20260505220022 | 18 | 227 | 9.7 | 14.5 | 0.00 | 0.10 | 0.10 | 76 | 1010.5 |
| 20260505214517 | 18 | 223 | 3.2 | 8.0 | 0.00 | 0.10 | 0.10 | 74 | 1010.0 |
| 20260505213023 | 19 | 198 | 1.6 | 9.7 | 0.00 | 0.10 | 0.10 | 75 | 1009.8 |
| 20260505211520 | 19 | 244 | 3.2 | 8.0 | 0.00 | 0.10 | 0.10 | 74 | 1009.9 |
| 20260505210018 | 18 | 211 | 4.8 | 9.7 | 0.00 | 0.10 | 0.10 | 76 | 1009.8 |
| 20260505204514 | 18 | 212 | 1.6 | 9.7 | 0.00 | 0.10 | 0.10 | 77 | 1010.1 |
| 20260505203025 | 18 | 218 | 3.2 | 6.4 | 0.03 | 0.10 | 0.10 | 76 | 1010.3 |
| 20260505201516 | 18 | 248 | 3.2 | 12.9 | 0.03 | 0.10 | 0.10 | 74 | 1010.3 |
| 20260505200012 | 17 | 229 | 4.8 | 20.9 | 0.03 | 0.10 | 0.10 | 74 | 1010.4 |
| 20260505194510 | 18 | 275 | 20.9 | 62.8 | 0.03 | 0.10 | 0.10 | 69 | 1010.9 |
| 20260505193010 | 25 | 238 | 17.7 | 43.5 | 0.00 | 0.08 | 0.08 | 34 | 1008.2 |
| 20260505191509 | 25 | 270 | 27.4 | 51.5 | 0.00 | 0.08 | 0.08 | 32 | 1007.9 |
| 20260505190007 | 25 | 234 | 19.3 | 38.6 | 0.00 | 0.08 | 0.08 | 36 | 1007.9 |
| 20260505184504 | 25 | 262 | 20.9 | 38.6 | 0.03 | 0.08 | 0.08 | 40 | 1008.7 |
| 20260505183002 | 25 | 236 | 11.3 | 33.8 | 0.03 | 0.08 | 0.08 | 45 | 1008.5 |
| 20260505181600 | 23 | 240 | 9.7 | 19.3 | 0.03 | 0.08 | 0.08 | 54 | 1009.2 |
| 20260505180058 | 22 | 228 | 20.9 | 32.2 | 0.03 | 0.08 | 0.08 | 51 | 1009.6 |
| 20260505174557 | 24 | 243 | 19.3 | 38.6 | 0.00 | 0.05 | 0.05 | 44 | 1009.8 |
| 20260505173104 | 23 | 257 | 14.5 | 33.8 | 0.00 | 0.05 | 0.05 | 45 | 1009.9 |
| 20260505171601 | 23 | 242 | 19.3 | 32.2 | 0.00 | 0.05 | 0.05 | 44 | 1009.8 |
| 20260505170057 | 24 | 211 | 16.1 | 30.6 | 0.00 | 0.05 | 0.05 | 43 | 1009.6 |
| 20260505164555 | 24 | 245 | 16.1 | 35.4 | 0.00 | 0.05 | 0.05 | 43 | 1009.2 |
| 20260505163052 | 24 | 222 | 11.3 | 29.0 | 0.00 | 0.05 | 0.05 | 43 | 1009.5 |
| 20260505161616 | 24 | 273 | 25.7 | 38.6 | 0.00 | 0.05 | 0.05 | 41 | 1009.8 |
| 20260505153050 | 24 | 237 | 24.1 | 43.5 | 0.00 | 0.05 | 0.05 | 42 | 1009.8 |
| 20260505151546 | 23 | 268 | 22.5 | 38.6 | 0.00 | 0.05 | 0.05 | 43 | 1010.0 |